Theta_e
303 303 302 303 303 303 303 304 304 304 305 305 305 305 305 306 305 305 305 306 306 307 308 308 313 320 318 316 315 315 316 316 320 322 326 328 319 321 321 322 322 323 324 324 325 326 327 328 328 328 333 335 341 347 345 345 343 344 353 351 343 345 346 346 355 353 343 343 343 346 349 350 350 350 348 348 349 350 350 350 350 350 350 351 354 355 356 355
302 303 302 303 303 303 304 303 304 304 304 304 305 305 305 306 306 306 306 306 306 307 308 309 313 320 319 316 314 314 316 319 323 327 330 321 319 322 321 322 321 322 323 325 327 327 328 329 329 331 338 338 339 344 345 345 343 350 354 347 345 350 349 346 351 350 343 343 344 345 347 347 349 349 348 351 351 350 352 352 351 352 352 352 354 355 356 356
302 302 302 303 303 303 303 303 304 304 304 304 305 305 305 306 306 306 306 306 306 307 308 308 314 320 318 316 314 313 319 322 327 329 326 321 325 324 325 324 321 322 322 325 327 325 327 329 326 329 335 335 338 341 342 344 343 348 350 348 350 348 344 345 348 347 343 342 345 344 345 347 348 348 348 351 352 352 354 354 354 354 354 353 354 355 356 356
302 302 302 303 303 303 303 303 303 304 304 305 304 305 305 305 306 306 306 306 306 307 308 308 314 320 317 315 312 314 321 324 323 321 322 326 326 323 328 325 321 322 322 325 327 326 328 327 327 328 331 331 335 338 341 346 343 342 345 349 350 343 343 345 344 344 342 341 343 343 347 349 347 348 348 350 354 355 355 353 354 355 354 353 354 355 356 355
302 302 302 303 302 303 303 303 304 304 304 304 304 305 305 305 306 306 306 306 306 307 308 307 314 320 318 314 312 317 320 320 317 323 326 327 325 322 326 326 322 321 322 325 325 327 327 326 328 328 330 332 333 334 339 344 343 340 342 346 344 341 345 345 342 343 342 343 344 345 348 348 347 348 347 352 357 356 354 351 352 353 353 353 354 355 355 355
302 303 302 302 303 303 303 303 303 304 304 304 304 305 305 306 306 306 307 307 307 307 308 307 313 320 317 313 315 321 320 315 318 323 323 323 323 322 325 326 323 321 323 325 326 325 327 327 328 330 332 332 333 334 334 336 339 341 341 340 340 342 345 343 343 344 343 345 345 346 348 347 349 350 349 353 355 353 351 351 351 352 352 352 354 354 354 354
302 303 303 302 303 303 303 303 303 304 304 304 305 305 305 306 306 307 306 307 307 307 308 307 314 319 316 315 319 325 324 320 319 320 323 320 321 324 324 325 322 321 324 326 327 325 329 329 329 333 334 333 334 331 331 330 334 339 338 339 340 342 344 343 344 345 345 346 346 347 349 349 352 352 350 352 353 350 351 350 351 352 352 352 354 354 354 355
303 302 302 302 302 303 303 303 303 303 304 304 305 305 305 305 306 307 307 308 307 308 308 307 315 318 316 318 320 323 323 322 321 324 327 322 321 324 322 325 322 322 326 327 327 325 329 329 330 334 334 335 333 330 330 328 330 335 338 340 339 342 344 344 345 345 345 346 346 349 350 351 351 351 353 354 352 350 351 351 351 352 352 353 353 354 355 355
304 303 302 302 302 303 303 303 303 303 304 304 305 305 305 306 306 307 307 308 307 308 308 309 316 316 316 321 320 320 322 321 323 327 328 324 324 324 321 323 322 325 328 325 324 324 325 328 331 333 333 333 330 328 329 329 330 336 339 340 340 343 343 344 346 346 346 345 346 350 352 352 349 352 355 354 351 351 352 351 352 353 353 353 353 354 355 355
303 303 302 302 302 303 303 303 303 303 304 304 304 305 306 306 306 307 308 308 308 309 308 311 317 316 317 323 321 322 322 319 324 324 324 326 328 324 320 322 323 327 327 324 324 324 324 328 330 331 331 330 329 329 329 329 330 333 339 341 341 344 344 345 346 346 347 346 349 352 354 353 350 356 359 352 351 351 352 352 352 353 353 354 353 353 353 354
304 303 303 303 303 303 303 303 303 303 304 304 304 305 305 306 307 308 308 308 308 309 309 313 316 317 319 322 320 324 324 320 324 321 320 324 327 325 321 320 322 325 325 323 323 324 325 328 327 329 329 330 329 329 329 330 329 332 341 343 344 344 345 346 348 348 348 348 350 351 353 353 351 357 359 352 351 351 352 353 352 353 354 354 354 354 354 353
305 303 303 303 302 303 303 303 304 304 304 304 305 305 306 307 307 308 309 309 310 309 311 315 317 319 323 324 322 325 324 322 323 321 322 323 324 325 323 321 321 322 325 323 322 323 325 325 326 328 329 329 328 329 330 329 328 334 342 345 346 348 348 348 347 348 348 349 348 350 353 354 355 357 355 351 351 352 352 353 352 353 354 355 354 354 355 353
305 304 304 303 303 303 303 303 304 304 304 304 305 306 306 307 308 309 310 311 312 312 314 316 317 320 325 328 326 325 323 324 323 325 327 324 324 325 324 324 323 322 323 322 322 322 323 323 325 327 328 327 328 328 328 326 330 339 343 345 347 348 349 348 348 348 350 349 347 351 351 352 357 354 352 351 351 352 353 353 352 353 353 353 355 354 354 353
305 304 304 303 303 302 303 303 303 304 304 305 305 306 307 308 310 312 312 314 314 316 317 317 319 324 327 328 326 326 326 326 327 328 328 326 326 325 325 326 324 323 324 322 322 321 322 324 324 326 326 326 327 327 327 330 336 342 341 344 347 341 342 349 348 348 350 348 347 355 350 350 357 353 351 351 349 352 353 353 353 351 352 352 354 354 353 353
304 303 303 303 302 302 302 303 303 304 304 305 306 306 308 310 313 316 318 320 319 319 318 318 321 327 331 329 327 326 326 329 331 329 326 327 325 326 326 325 325 325 324 323 322 321 322 322 323 325 324 326 326 326 332 336 337 339 336 334 341 338 340 348 348 349 352 347 347 355 349 348 355 352 351 350 350 352 352 352 352 351 351 351 351 352 351 352
304 303 303 302 302 303 302 303 303 303 304 305 306 307 310 314 320 324 325 324 321 320 320 322 323 326 333 332 328 326 327 332 334 329 329 328 326 328 326 324 324 323 323 324 322 321 322 323 324 325 325 324 325 327 332 332 331 335 336 328 332 336 337 344 346 347 350 348 347 351 351 351 354 351 350 350 349 351 352 351 350 349 350 349 350 350 351 351
306 304 303 303 302 303 303 303 302 303 304 305 306 308 313 321 326 327 326 324 322 321 323 327 325 324 329 330 328 328 329 331 332 331 331 329 329 329 325 322 321 321 322 322 322 322 322 322 324 325 326 324 328 330 325 320 321 328 334 329 330 337 336 337 344 346 346 349 347 349 353 353 353 351 350 350 349 349 350 349 348 348 349 349 349 348 350 351
307 305 303 302 302 302 303 303 302 303 303 305 309 311 318 326 329 326 324 325 325 324 325 328 326 324 326 328 328 327 327 326 328 329 328 329 331 329 324 321 320 321 320 320 322 322 322 323 323 325 327 326 330 331 321 319 323 324 328 326 327 336 336 335 342 343 345 348 348 350 354 354 352 352 350 350 348 349 349 348 347 348 349 348 349 348 349 350
307 305 303 303 302 302 303 302 303 303 303 307 310 313 323 327 328 327 326 329 330 326 328 332 330 326 325 327 325 325 325 326 327 327 327 328 329 327 323 320 321 321 321 322 322 321 322 323 322 321 323 325 330 331 325 326 332 332 331 328 327 330 333 340 344 342 345 347 348 351 352 352 352 352 351 350 349 349 349 349 348 349 349 349 349 349 349 351
307 305 303 303 302 303 303 302 303 302 305 309 309 313 321 322 324 326 324 328 329 324 322 326 328 326 325 325 325 326 326 326 327 328 328 328 326 323 321 319 321 321 322 324 322 321 324 323 322 321 323 327 331 332 329 330 334 335 334 330 329 330 331 339 344 342 345 345 346 350 350 351 352 351 351 350 350 351 350 350 350 351 350 349 350 349 349 350
306 305 303 303 302 303 302 303 303 302 307 309 307 312 317 316 319 319 317 321 322 321 323 323 324 324 325 325 324 326 326 327 328 329 328 328 324 323 322 319 319 320 321 324 322 322 323 321 322 323 323 326 330 330 331 330 332 332 331 330 329 329 332 339 343 342 344 345 346 350 350 350 351 350 349 349 350 351 350 351 352 352 351 350 350 350 350 350
306 304 303 302 303 303 302 303 302 303 309 308 306 310 313 313 315 313 315 319 318 319 322 322 321 322 323 324 324 326 327 328 330 329 329 326 324 325 324 320 319 321 321 322 322 321 322 321 322 324 322 324 326 328 330 331 333 331 331 330 326 330 334 334 340 343 342 344 346 350 350 349 351 348 348 348 349 350 350 350 352 353 352 351 350 350 350 351
307 304 302 303 303 302 303 302 302 307 310 306 306 310 313 313 312 311 315 319 320 320 321 322 322 322 323 323 324 327 329 331 330 330 329 325 325 326 324 320 320 322 320 322 322 319 318 322 324 322 323 326 326 328 331 331 330 330 331 328 326 333 331 327 335 341 342 344 346 350 349 348 351 349 348 348 347 349 348 348 351 352 352 352 349 349 350 351
306 304 303 303 302 303 303 301 305 311 308 305 308 312 313 312 309 310 316 323 325 323 323 324 323 323 324 324 324 328 330 331 331 332 328 325 325 324 322 322 321 320 321 322 322 319 320 325 328 323 324 329 327 329 332 328 327 329 331 328 328 334 331 330 335 340 345 347 347 349 343 344 352 352 349 349 348 349 349 348 351 351 352 351 350 349 349 351
306 303 303 303 303 303 302 303 309 309 305 305 310 313 312 309 307 308 316 327 326 323 324 323 324 324 324 325 326 328 329 329 331 331 326 324 325 324 324 322 321 320 320 321 321 322 321 324 326 324 328 328 326 330 331 329 326 324 329 331 333 336 335 337 338 336 334 335 343 346 335 340 355 353 349 350 349 350 350 350 351 352 352 351 351 349 349 351
305 303 303 302 303 303 303 307 309 305 305 309 310 310 309 307 308 309 318 330 326 324 328 325 324 327 325 327 328 327 328 327 329 328 325 325 324 324 324 323 322 322 322 323 322 323 323 323 325 325 329 330 328 328 330 333 323 319 330 334 332 336 335 336 337 330 325 327 341 344 336 338 345 345 351 351 350 351 350 350 350 351 353 351 351 350 349 350
304 303 303 302 304 305 308 309 305 305 309 310 308 308 307 305 308 310 321 329 326 327 332 327 323 324 325 328 327 326 327 328 327 327 325 326 324 324 326 324 323 321 322 322 318 319 324 323 323 326 327 330 329 326 330 333 324 322 336 336 332 335 334 336 336 328 328 334 341 342 341 339 335 339 350 352 351 352 351 351 350 350 352 352 350 350 349 350
304 302 302 303 304 305 306 307 305 308 310 306 307 306 306 306 310 320 326 324 326 331 331 327 323 322 324 325 325 326 329 330 329 327 326 325 324 325 325 325 322 321 323 321 315 319 325 323 323 325 324 326 328 330 331 329 326 330 335 331 332 333 334 338 334 328 334 335 332 337 340 337 337 347 352 351 351 350 351 350 349 350 350 351 350 350 350 350
303 302 302 303 303 304 306 306 306 311 307 305 307 305 306 308 315 331 332 321 323 329 327 324 324 323 324 325 324 326 328 328 329 329 326 324 325 325 325 324 321 322 323 319 320 323 324 323 323 323 322 323 328 331 330 327 330 331 329 327 328 331 333 336 336 331 331 329 328 333 332 330 338 346 346 346 347 346 350 349 347 349 349 350 350 350 350 351
303 302 302 304 305 306 306 305 308 307 306 307 306 304 308 317 322 327 327 323 322 326 325 323 323 323 326 326 325 326 327 327 330 328 324 324 325 324 324 323 320 321 322 320 321 322 323 327 328 326 324 325 327 329 327 328 331 328 330 326 325 336 341 341 345 337 326 327 329 331 330 328 332 339 341 342 346 347 349 349 347 348 349 350 350 350 351 352
302 302 302 305 306 307 305 307 307 305 309 306 305 307 313 327 333 325 324 325 321 324 327 324 324 324 325 326 326 327 327 328 328 326 325 325 325 324 322 322 321 320 319 318 319 322 321 322 325 328 331 328 326 327 327 329 328 326 330 325 321 332 338 334 337 332 324 328 332 330 332 328 326 335 344 344 346 348 347 347 347 346 348 349 349 350 351 352
302 302 302 304 306 306 306 308 304 306 307 304 307 315 319 324 325 323 327 325 320 326 326 323 325 324 324 326 326 327 327 326 327 327 326 326 324 325 323 324 323 317 315 316 318 320 320 321 323 324 327 329 325 326 326 327 327 326 328 322 315 320 325 324 327 326 324 328 331 329 331 329 328 337 346 345 344 346 346 346 346 345 346 347 349 350 350 352
302 302 303 303 305 307 308 305 305 306 304 306 311 322 326 323 321 322 324 321 321 325 325 322 324 323 323 325 325 327 326 326 328 327 326 325 325 325 323 325 326 320 320 321 316 314 316 320 323 320 322 327 325 323 319 322 328 324 323 320 315 317 317 318 325 326 325 326 325 326 332 330 329 338 348 348 344 344 344 344 344 344 345 346 349 350 350 352
303 302 304 305 305 308 306 304 307 306 306 310 315 322 323 322 324 325 322 320 320 323 323 323 323 323 323 323 324 327 325 326 329 326 324 324 324 323 322 323 322 323 328 323 315 314 312 315 322 320 321 326 327 325 322 330 332 326 330 327 318 320 319 317 322 323 322 323 320 324 332 329 325 335 350 345 341 345 343 343 345 343 345 345 346 348 349 352
303 303 305 306 307 308 308 308 308 307 308 312 318 320 318 317 321 324 325 324 321 322 323 323 323 321 321 324 326 327 324 326 328 326 324 323 322 323 323 322 322 323 325 318 317 318 311 313 325 325 324 326 326 326 327 329 326 324 333 326 317 326 327 318 321 326 322 319 319 323 332 337 335 341 355 347 339 344 345 344 345 345 347 347 346 348 349 351
303 304 307 308 309 311 311 309 308 308 309 313 314 316 315 315 319 323 327 326 322 323 323 323 323 320 319 324 327 326 324 325 328 326 324 324 322 323 324 323 323 323 322 321 321 320 312 316 330 326 325 326 324 327 329 323 323 326 324 320 323 331 328 318 318 326 322 316 323 325 324 333 334 336 357 356 342 346 350 348 346 346 347 348 348 349 348 351
306 308 310 310 312 316 315 311 309 309 311 310 310 313 313 313 319 322 325 324 320 322 322 320 322 320 317 320 323 323 323 324 327 325 323 324 322 324 324 322 323 322 323 323 324 326 319 319 332 327 323 326 324 326 329 325 329 326 317 321 328 327 330 329 321 322 321 319 325 323 318 323 324 331 355 358 349 353 352 348 346 346 348 347 348 348 348 351
306 307 311 313 315 318 315 310 308 310 313 309 310 317 318 313 315 319 319 319 317 320 320 318 320 322 319 317 319 323 322 320 324 324 323 323 322 325 324 323 323 322 324 323 323 329 323 316 327 333 325 326 327 323 323 324 327 325 321 327 327 318 322 325 320 320 320 320 323 323 324 326 325 336 347 345 355 361 350 347 348 347 347 347 347 347 348 350
306 311 316 316 317 316 312 310 311 313 313 308 308 316 319 315 315 317 317 317 316 318 320 319 322 321 321 320 320 321 321 318 321 322 321 321 324 326 324 324 325 323 323 324 323 329 326 316 319 332 328 325 326 321 316 319 324 325 326 326 325 323 322 320 319 320 319 321 326 324 322 325 335 353 352 344 364 363 348 349 349 345 347 346 345 347 346 349
307 314 316 316 315 314 312 312 314 314 312 312 310 311 315 315 315 316 317 316 316 318 320 322 322 320 320 321 320 320 321 320 321 320 320 323 323 324 324 323 325 325 322 323 324 325 327 319 315 325 329 322 322 323 319 319 322 321 320 319 320 323 324 322 322 322 321 324 330 326 320 329 354 370 363 352 359 354 347 350 346 344 346 345 345 346 346 349
308 314 317 317 314 314 315 316 318 317 317 319 316 313 315 314 315 317 316 315 316 317 318 319 319 319 319 319 320 321 321 321 322 321 321 322 321 322 325 323 324 326 323 323 324 322 324 323 315 316 319 316 321 329 326 324 325 323 321 320 320 320 321 318 317 321 321 322 327 325 317 328 356 368 366 363 355 348 347 347 345 346 344 345 347 345 346 348
310 313 314 314 313 314 315 319 325 325 323 323 319 316 317 317 318 317 315 316 316 316 316 317 317 318 317 318 320 320 321 321 321 321 320 322 323 323 325 325 325 324 324 323 322 325 332 332 318 313 318 320 325 329 326 323 326 326 324 324 326 328 323 315 316 321 320 319 327 327 317 328 365 378 370 365 353 346 346 345 346 346 343 345 346 343 346 347
311 312 313 313 313 314 313 319 329 329 324 323 322 320 320 320 320 319 317 318 316 316 316 316 317 318 318 319 320 320 322 321 320 322 322 323 324 323 325 326 323 323 325 323 322 329 334 330 318 314 320 325 326 328 328 328 324 323 325 326 325 328 326 324 330 330 321 319 324 323 318 336 376 380 361 353 348 346 347 347 346 344 344 345 345 345 346 346
308 309 313 315 315 314 314 320 329 331 329 325 323 322 321 321 320 319 319 318 317 317 316 316 318 318 318 321 320 321 320 319 320 322 322 325 329 328 325 324 323 325 325 324 327 327 324 326 321 315 315 318 320 322 323 325 325 324 330 329 324 330 331 332 337 329 319 322 325 321 321 340 371 367 349 347 349 347 347 346 344 344 345 345 345 347 347 346
310 312 314 315 314 314 316 318 319 323 326 321 320 323 322 322 322 321 321 320 318 319 317 318 319 318 319 322 321 322 322 321 322 325 327 329 334 336 330 323 323 322 324 333 334 324 325 331 324 314 313 315 316 318 320 324 327 328 332 328 325 328 326 327 328 319 316 324 326 323 328 342 361 355 340 344 349 347 348 346 345 347 346 345 346 346 347 348
313 320 320 315 314 314 316 315 312 315 319 318 322 325 322 322 324 321 323 322 320 320 319 319 319 318 321 321 322 323 324 324 325 328 330 332 336 341 336 329 326 323 342 360 343 327 338 339 325 319 318 316 318 327 335 335 325 320 324 324 325 326 325 332 328 318 323 329 326 335 340 334 341 347 343 347 348 346 349 347 346 348 346 346 347 346 348 348
314 322 319 315 316 317 315 314 312 313 316 317 323 326 321 322 324 322 324 324 321 321 319 319 320 319 319 321 324 327 328 333 333 328 330 336 340 341 336 336 336 339 366 378 347 333 338 328 323 327 323 320 325 332 337 333 322 319 321 322 324 325 325 329 323 324 336 327 321 348 356 330 332 349 349 347 347 346 349 348 347 348 346 346 347 347 349 348
318 321 315 313 317 319 316 314 313 314 315 317 321 323 321 321 322 321 322 320 319 321 320 323 325 323 322 323 327 333 336 337 334 332 335 341 344 342 338 340 339 340 353 353 338 335 332 322 323 326 323 323 327 326 328 329 326 324 324 322 323 324 325 322 322 335 343 323 321 350 356 334 336 347 345 344 344 344 347 346 345 346 346 348 349 350 352 350
315 315 312 312 315 316 314 314 314 315 316 318 324 326 322 322 321 318 318 319 321 323 325 330 333 331 329 327 331 342 344 335 332 340 345 342 341 341 339 338 336 336 338 334 336 338 325 325 332 324 318 323 323 324 326 325 324 324 324 326 324 325 325 322 327 339 338 330 337 352 350 342 340 340 340 342 342 343 345 344 344 346 348 351 352 352 352 350
310 310 310 312 313 314 314 314 316 316 316 318 326 328 322 321 321 318 316 317 319 324 329 333 334 334 333 332 334 343 349 343 339 343 342 337 338 340 341 341 337 335 334 333 338 334 324 334 346 329 318 320 321 325 325 323 324 322 321 326 325 324 325 323 329 336 333 334 344 345 342 343 341 340 343 343 346 349 347 345 346 347 348 350 351 351 351 351
306 307 308 310 313 315 315 315 314 316 317 320 324 324 319 319 321 317 317 319 319 323 330 333 334 334 335 336 335 336 338 337 336 335 331 331 334 334 337 340 336 334 338 338 337 336 333 339 343 328 316 316 320 323 323 325 324 319 320 326 324 325 328 327 334 340 334 338 345 338 334 338 342 349 349 345 346 346 343 345 345 344 346 347 349 351 353 356
305 306 307 309 312 315 315 315 314 316 321 321 318 317 316 317 318 317 320 324 324 325 330 330 331 335 339 339 335 330 326 326 328 329 328 327 328 328 331 333 332 333 338 340 338 342 342 336 334 327 317 317 323 323 324 323 317 318 331 338 332 334 336 334 343 348 345 350 349 337 334 341 349 352 347 343 345 342 341 344 343 342 346 346 347 352 357 361
Wind_Speed
22 22 23 23 24 25 25 26 27 27 28 28 27 27 27 27 28 28 28 28 28 28 27 26 22 19 18 19 19 19 20 20 17 9 9 18 24 22 20 20 17 13 13 13 12 9 3 1 2 2 0 1 1 1 1 3 1 2 3 3 2 3 4 5 6 5 7 10 11 12 13 15 12 7 7 8 9 10 8 5 6 5 7 11 14 22 25 26
22 23 23 24 24 25 26 27 27 28 28 29 28 28 28 27 27 27 28 28 28 28 27 26 22 19 18 19 19 19 20 19 14 12 18 22 21 21 22 20 18 19 16 13 13 11 4 3 1 2 3 1 1 1 1 1 1 3 3 3 4 5 5 5 7 6 9 13 13 12 13 13 14 12 9 10 10 9 9 7 7 9 10 12 18 24 24 26
23 23 24 24 25 26 26 27 27 28 28 29 29 29 29 28 28 27 28 28 28 28 28 26 21 18 18 18 18 18 18 13 8 11 15 9 6 11 16 17 19 21 19 13 11 10 7 4 2 4 4 1 2 1 1 1 1 1 3 2 5 6 5 5 8 8 10 15 14 12 11 12 14 13 9 11 12 9 10 10 10 10 11 14 16 21 24 25
24 24 25 25 26 26 27 27 28 28 29 29 30 30 30 29 28 28 28 28 28 28 27 25 21 17 17 17 16 15 13 7 5 7 6 6 2 10 9 16 19 21 19 12 6 6 7 3 3 4 3 1 2 1 1 2 2 1 4 4 6 5 5 7 8 9 12 15 14 12 11 12 13 11 9 14 12 6 8 12 15 16 15 16 16 19 22 22
25 25 26 26 27 27 28 28 28 28 29 29 30 31 31 30 29 28 28 28 28 28 27 25 20 16 16 15 13 12 9 3 5 6 4 7 9 14 10 16 21 22 19 12 6 5 5 3 4 3 2 0 1 1 3 5 3 2 4 7 6 7 8 8 7 11 13 13 13 13 13 13 11 9 13 17 13 9 10 11 16 19 18 19 19 19 19 19
26 26 27 27 28 28 29 29 29 29 29 29 30 31 31 31 30 29 29 28 28 27 27 24 19 15 14 12 10 7 3 1 8 10 10 13 13 14 10 17 23 22 20 13 6 6 5 4 4 2 3 1 2 3 4 4 4 2 6 6 7 9 9 6 8 13 13 12 13 13 12 11 11 9 13 15 10 10 12 12 15 17 19 22 21 19 17 16
25 26 27 28 29 30 30 30 30 30 30 30 30 31 32 32 31 30 30 29 27 27 26 23 17 12 12 10 7 3 2 6 16 16 16 17 13 10 8 20 24 22 20 12 6 5 5 5 4 4 4 1 2 3 5 4 4 5 6 5 10 11 9 8 9 13 13 13 11 10 11 13 14 11 9 6 3 9 13 12 14 15 19 21 18 17 17 16
26 27 28 29 30 31 31 31 31 31 31 31 31 31 32 32 32 31 31 29 28 27 25 21 14 9 10 7 3 3 1 9 17 18 15 13 10 6 10 22 24 21 18 14 10 7 5 5 4 3 3 1 2 2 5 4 2 5 5 8 11 8 7 9 9 11 11 11 10 12 12 12 13 11 7 5 5 11 14 13 14 15 16 16 15 16 15 15
26 27 29 30 31 32 32 32 32 33 33 33 33 32 32 33 32 32 31 31 29 27 24 19 11 6 7 3 2 4 6 7 10 15 10 8 8 6 15 22 22 20 14 13 11 9 5 4 4 4 4 3 2 2 1 4 3 4 5 8 10 8 9 11 10 11 10 9 11 13 10 8 10 10 4 4 10 13 14 15 15 15 15 14 14 14 13 13
27 27 29 31 32 33 33 33 33 34 34 34 34 33 33 33 33 33 32 31 30 26 21 14 8 4 2 1 3 2 8 6 7 13 12 10 5 10 18 19 22 19 11 8 9 8 5 5 5 4 4 2 1 2 1 5 4 5 3 6 10 12 11 12 12 11 10 8 13 15 10 9 9 7 3 4 11 14 15 15 15 15 15 14 13 12 13 13
28 28 30 31 32 33 33 34 34 35 35 36 36 35 34 33 33 33 32 31 29 23 16 11 7 2 1 1 2 5 8 6 3 11 16 14 5 12 17 18 23 21 11 5 6 8 6 4 2 2 2 1 1 4 4 3 5 4 7 7 10 12 9 12 12 11 10 5 11 16 10 7 4 3 8 11 12 15 17 16 15 14 13 13 13 12 11 12
28 29 31 32 33 33 34 35 35 36 36 36 37 36 35 35 34 33 32 30 26 19 12 9 4 2 1 1 6 12 12 10 10 15 18 15 9 10 13 15 21 23 18 8 4 10 11 6 2 2 2 0 2 4 4 2 4 4 13 10 8 10 7 10 10 11 11 6 11 16 9 2 1 5 11 14 14 15 16 16 15 13 12 12 12 11 9 12
28 30 32 33 33 34 34 35 36 36 37 37 37 36 36 35 33 32 30 27 20 13 8 6 3 4 1 2 10 17 18 16 17 18 16 12 11 11 11 13 17 20 20 12 7 9 12 12 5 2 3 2 0 4 3 4 2 7 11 9 8 7 5 8 7 10 12 10 13 13 5 4 2 7 13 14 15 15 14 14 14 12 11 11 11 10 10 13
29 31 32 33 34 34 35 36 36 37 37 38 38 37 36 34 32 29 25 21 14 7 5 4 4 4 2 6 16 17 15 13 16 16 11 10 10 10 12 13 14 15 16 13 8 6 9 12 6 2 2 2 2 3 5 5 4 7 6 6 7 6 7 7 6 11 11 9 10 9 3 6 4 9 14 14 15 16 14 14 13 11 11 10 10 10 10 12
30 32 32 33 34 35 36 37 37 37 37 38 38 37 34 31 27 22 17 12 7 1 4 4 5 4 1 9 15 11 8 7 12 13 9 11 10 8 12 13 13 14 13 13 10 6 6 7 3 2 2 2 1 3 4 4 3 4 4 4 4 6 7 6 6 11 14 10 6 6 4 4 6 11 14 14 15 16 15 14 13 12 12 12 10 11 10 11
31 32 33 34 35 35 36 37 38 38 37 38 39 35 30 25 19 14 9 6 3 3 5 3 4 3 0 6 8 6 6 6 7 8 7 13 13 11 11 7 8 11 11 11 11 9 5 2 2 3 1 1 2 3 3 5 2 2 4 5 6 6 7 5 6 8 14 14 7 2 5 4 6 12 14 15 16 15 14 14 14 13 13 13 10 10 10 10
31 33 33 34 34 36 37 37 38 38 38 38 38 33 24 15 10 7 5 8 5 6 6 3 1 0 4 7 6 5 4 4 6 6 6 12 16 16 8 3 4 8 8 7 7 6 3 1 2 2 1 0 2 4 3 2 2 3 2 4 6 9 10 7 5 7 9 14 9 4 8 7 8 14 16 16 17 16 14 14 14 13 12 12 10 10 10 11
32 33 33 34 35 36 36 37 38 38 39 37 33 27 17 7 6 4 7 9 5 5 4 2 1 1 5 5 4 5 6 11 15 15 13 11 16 19 10 4 4 7 5 3 3 3 2 1 1 1 1 1 3 5 3 4 5 5 5 5 5 8 11 11 9 8 10 11 9 7 7 7 9 14 16 16 17 16 14 15 14 13 13 12 11 10 11 12
32 33 34 34 36 36 36 37 37 38 39 34 28 19 9 5 5 1 4 4 4 1 1 2 3 1 7 10 11 14 16 18 20 18 13 9 12 16 11 5 5 8 6 2 2 4 4 1 2 3 3 3 4 6 8 8 7 8 6 5 8 9 9 12 10 11 15 10 7 10 9 9 12 14 15 15 16 15 14 13 11 12 12 12 11 10 11 12
32 34 34 35 37 36 37 36 35 38 33 27 28 16 4 5 5 2 3 2 2 5 7 7 6 6 11 14 15 16 19 16 11 10 11 8 8 9 6 3 4 5 5 5 3 3 5 4 3 5 7 7 8 9 9 7 6 7 4 3 8 10 8 10 10 11 15 9 7 9 10 12 15 16 16 15 15 13 13 13 12 12 12 12 12 12 13 12
33 34 35 36 37 36 37 35 36 36 23 19 24 11 1 4 3 4 8 8 8 8 11 14 12 12 15 16 16 10 9 9 6 10 19 14 6 8 3 3 5 3 4 6 4 1 4 6 8 8 9 9 9 9 6 4 3 4 4 2 5 8 8 11 11 12 13 8 5 7 8 12 15 16 15 14 15 14 15 15 14 15 14 12 14 14 14 10
33 34 36 37 37 38 37 34 36 31 15 16 18 5 2 3 4 9 7 8 10 9 12 16 13 14 17 23 25 11 2 7 10 13 15 9 6 6 4 5 6 5 4 4 3 2 4 6 10 10 8 8 7 5 6 5 5 3 3 4 4 5 4 5 8 12 12 6 5 7 8 10 12 14 14 15 16 15 15 17 16 16 15 13 13 14 13 10
32 34 37 36 38 39 35 35 35 20 11 19 17 3 1 5 12 15 5 5 12 7 10 12 11 11 13 18 20 10 8 7 8 12 9 5 6 7 5 5 6 5 4 6 6 6 4 6 10 8 7 7 7 4 7 5 4 4 3 4 3 4 3 4 6 10 8 2 5 8 5 4 6 8 10 14 15 12 13 15 14 15 15 15 16 14 13 13
33 35 36 36 39 38 36 36 24 8 16 28 15 3 5 12 18 17 3 4 9 6 8 13 11 9 13 13 10 12 8 7 7 10 8 9 5 4 6 6 6 5 5 7 8 6 5 7 5 7 8 9 7 4 7 6 4 3 5 5 4 5 7 5 6 9 3 4 5 8 4 2 4 7 9 9 10 9 10 13 12 12 14 14 14 13 13 14
34 35 35 38 38 39 39 29 10 8 28 26 6 1 11 19 22 15 3 1 6 6 4 9 6 6 13 11 11 12 6 5 7 8 7 11 8 4 4 4 5 6 7 6 7 6 8 8 3 6 7 8 8 6 6 7 4 3 4 8 7 8 8 4 9 11 4 1 4 9 4 4 4 8 10 8 9 11 9 11 13 13 12 11 11 11 12 13
36 35 36 37 37 41 34 14 8 22 27 11 2 11 18 23 25 11 1 2 5 5 1 2 1 3 7 7 9 8 3 4 9 11 8 11 12 7 4 3 2 6 7 5 4 3 6 7 5 6 6 7 7 6 6 8 5 3 5 9 9 9 8 7 10 11 6 4 7 9 7 3 4 8 11 9 10 13 10 11 14 12 12 12 11 12 12 12
36 35 37 37 36 37 22 8 19 24 11 4 11 20 21 25 23 6 2 4 4 4 1 1 0 1 3 5 8 8 4 5 5 8 9 12 12 7 7 5 2 4 4 4 3 3 6 8 7 7 6 6 6 5 6 9 7 4 6 7 8 8 9 10 11 10 6 3 4 7 4 3 3 9 10 10 10 12 12 12 13 13 14 14 13 13 13 13
37 36 37 36 35 31 16 14 20 12 6 12 18 20 23 26 16 3 3 3 4 3 1 2 1 1 2 4 9 8 5 4 4 6 9 15 12 6 8 8 6 6 4 6 7 5 5 9 8 8 6 5 5 5 7 10 6 7 7 7 7 9 10 10 10 8 5 5 4 6 3 3 4 5 5 9 10 13 16 17 16 15 16 15 15 15 14 15
38 36 36 37 37 29 14 10 14 12 16 19 17 22 26 21 7 5 4 1 4 3 0 1 2 2 1 3 7 6 4 3 4 5 5 12 11 6 7 8 8 8 6 7 8 5 4 8 9 8 6 6 6 6 8 10 6 7 5 5 4 5 7 8 8 6 4 5 8 11 9 4 4 3 5 7 9 14 17 17 17 15 15 16 15 16 15 14
39 36 36 37 34 25 13 13 20 18 16 13 18 27 23 10 2 4 1 2 3 4 3 2 3 2 2 4 4 5 6 4 2 2 3 5 7 4 4 4 6 6 4 3 6 6 5 4 4 6 6 6 7 7 8 11 10 5 1 3 3 1 1 1 2 3 4 4 7 14 15 9 4 4 6 8 13 19 17 14 14 14 15 16 16 15 15 14
40 37 36 35 31 22 11 12 16 11 6 12 23 22 10 3 3 3 4 2 2 4 2 3 3 4 4 1 4 3 5 4 1 4 4 4 6 4 1 2 3 3 3 3 3 4 5 5 4 3 5 7 6 5 6 9 9 5 1 3 2 3 4 4 4 3 4 6 6 12 16 11 7 5 7 14 19 21 18 15 17 19 19 17 16 15 15 15
41 38 36 36 32 20 14 15 14 11 11 16 19 10 2 1 0 4 4 3 2 2 2 3 4 6 5 3 3 4 4 4 3 5 5 6 6 6 5 5 5 4 4 5 3 3 4 7 6 4 4 6 6 4 4 4 5 5 3 4 3 2 2 1 2 0 4 6 5 10 13 9 8 7 10 17 19 19 18 17 18 21 21 19 17 16 14 13
41 40 37 34 29 24 25 24 21 19 19 16 9 4 5 2 4 6 5 2 3 2 1 3 7 8 6 5 3 3 3 4 5 5 6 7 6 7 7 5 8 8 3 3 4 4 3 6 7 5 4 4 8 5 4 4 4 6 5 5 5 3 2 3 4 1 2 6 5 6 10 5 5 5 9 17 21 22 21 20 19 19 20 19 18 17 14 13
42 39 37 34 28 28 28 26 24 20 13 7 1 4 3 4 4 5 6 6 5 4 4 5 10 11 8 4 3 3 2 5 5 5 5 5 5 6 7 5 6 8 4 3 4 5 5 6 8 8 4 4 8 7 7 5 5 6 5 6 6 5 5 4 4 4 5 6 3 3 6 5 4 6 10 17 22 21 19 19 17 14 14 15 16 15 14 13
41 36 36 31 26 24 19 18 22 15 9 4 4 3 5 5 3 2 4 6 3 5 6 6 7 8 8 5 4 2 3 6 3 4 4 5 7 7 6 6 7 6 5 4 3 3 6 7 7 7 6 6 7 6 7 6 4 4 4 5 5 7 6 3 4 7 5 3 2 2 4 5 5 5 5 8 15 15 13 14 12 10 10 12 12 12 13 13
41 37 30 22 19 20 14 12 16 16 14 6 3 4 6 4 3 3 3 2 1 2 4 5 4 4 4 4 3 4 3 4 2 3 3 3 6 7 7 7 8 9 7 5 4 2 4 6 7 5 7 8 9 7 7 7 5 3 3 4 5 6 7 3 2 1 3 3 4 2 3 4 2 5 7 3 8 9 9 11 13 12 12 13 12 12 13 13
39 31 19 17 20 21 15 11 18 22 12 5 5 6 4 3 4 4 2 1 1 1 3 3 3 2 2 3 3 4 5 5 2 2 3 3 4 7 8 6 7 12 9 6 4 2 5 4 7 6 9 10 9 8 7 8 8 5 5 6 3 2 3 3 2 1 3 3 4 2 6 4 2 4 5 2 5 8 11 14 15 13 12 14 14 13 14 15
30 19 11 15 22 18 11 13 23 19 6 4 6 5 3 4 4 3 2 3 2 2 3 0 2 2 2 2 3 4 5 5 4 4 3 4 4 7 10 6 6 12 12 10 6 3 5 3 7 5 9 8 4 6 8 7 7 5 4 5 5 2 2 1 3 3 2 3 3 2 4 4 4 5 4 4 8 9 10 12 12 13 14 16 16 14 14 14
18 7 5 12 18 10 8 19 21 10 3 5 6 4 4 4 4 3 3 3 2 2 2 3 3 2 3 2 3 5 4 2 4 4 3 4 4 7 12 9 7 11 13 12 7 3 4 4 6 5 6 5 2 5 7 8 5 2 1 3 3 3 5 4 3 4 4 3 3 3 3 3 6 6 7 10 11 11 11 10 12 16 18 17 15 13 13 13
7 1 4 9 11 4 16 15 8 4 3 5 5 4 3 3 4 4 5 4 2 2 2 3 4 3 4 4 5 5 3 3 4 3 3 4 4 7 9 10 8 10 14 14 10 5 3 4 5 6 4 3 2 5 8 8 6 4 3 4 2 2 2 2 2 3 4 4 3 3 3 5 6 5 9 12 10 11 13 14 14 16 16 15 13 13 13 13
4 2 2 5 10 9 12 3 2 4 3 3 2 3 3 3 3 4 5 5 4 3 4 5 6 5 5 6 5 3 3 4 4 3 4 4 5 5 7 10 10 9 10 10 9 6 4 4 6 6 5 4 6 7 7 9 9 8 7 6 6 5 4 3 3 2 2 4 5 4 4 7 6 4 7 9 7 9 13 15 14 13 14 14 12 14 15 13
2 3 4 2 3 1 2 2 3 3 1 3 3 3 3 2 4 4 5 4 3 4 5 5 7 7 7 7 6 4 4 5 4 3 4 6 8 7 8 10 13 11 9 8 10 8 4 4 6 8 6 6 10 10 7 9 9 8 7 7 6 5 6 6 5 4 1 1 2 4 3 7 6 4 6 7 6 8 11 12 11 11 12 13 13 14 14 14
1 6 10 8 6 5 3 1 3 2 2 4 4 4 3 2 3 2 2 3 3 4 4 5 6 7 7 7 7 6 5 5 6 6 6 8 10 12 13 13 14 12 8 7 9 7 4 4 5 7 6 6 8 9 6 4 5 4 6 6 6 6 6 7 5 5 4 3 2 3 3 6 6 5 5 5 4 6 8 10 11 10 10 12 13 14 13 14
2 5 8 8 5 3 4 2 3 3 3 4 4 5 4 4 4 5 5 5 4 4 4 5 5 7 7 5 5 7 5 4 5 5 6 7 8 11 14 16 17 13 9 9 9 7 4 3 5 5 6 6 7 7 6 3 3 4 5 5 7 8 8 5 3 4 3 5 6 5 4 6 6 4 0 3 6 8 9 10 11 11 10 11 13 13 13 14
4 3 4 7 6 0 3 1 0 2 3 3 3 4 4 3 5 8 9 8 7 6 6 5 6 7 7 3 4 9 7 3 2 4 6 7 7 7 8 11 16 13 9 10 11 10 7 5 6 7 8 8 7 7 6 3 2 3 3 6 8 10 11 7 3 5 4 4 5 6 5 6 7 4 1 1 5 9 9 9 9 10 12 13 12 12 12 13
3 2 3 5 4 2 0 1 3 2 2 3 3 4 3 3 3 5 7 7 9 9 7 7 7 7 7 5 4 8 7 3 2 3 6 8 6 4 7 8 8 10 6 4 7 7 4 4 7 10 11 10 9 9 7 4 4 4 6 8 9 10 12 8 5 5 6 5 4 6 7 5 6 5 4 5 7 9 9 10 10 10 11 12 12 12 12 11
1 2 2 3 3 3 2 2 4 3 2 3 3 3 4 4 4 4 3 4 6 7 6 7 8 8 9 8 5 5 5 4 3 3 8 9 5 5 9 9 3 5 3 6 9 5 2 3 8 12 14 15 13 13 9 5 5 8 9 10 10 10 10 9 7 7 7 7 5 9 6 9 9 10 9 9 9 9 9 11 12 12 11 11 10 10 10 9
1 2 2 3 3 2 2 3 5 5 5 4 3 3 4 4 4 3 3 4 7 6 4 4 5 7 9 9 7 5 4 2 3 4 6 7 5 6 8 6 3 5 5 3 7 6 4 5 7 10 14 16 15 16 15 8 6 7 8 11 13 12 12 13 11 9 10 9 8 8 9 12 12 11 12 13 13 14 13 12 11 9 9 9 8 9 10 11
2 2 3 3 2 3 4 6 7 7 7 5 3 4 3 3 4 4 3 4 7 5 1 1 4 8 7 6 6 5 5 5 2 3 4 4 5 4 4 5 5 5 6 3 2 3 4 6 7 9 12 14 14 16 16 13 11 10 9 11 13 13 16 16 11 10 11 9 8 10 13 13 11 13 16 14 11 9 7 6 7 8 9 9 10 11 12 13
2 2 3 3 3 4 5 5 5 5 6 4 4 3 3 3 3 6 6 4 6 7 4 2 5 8 8 5 3 5 6 6 6 4 4 5 5 2 1 3 5 6 7 3 2 2 2 6 6 8 8 10 12 14 15 13 13 13 13 13 11 9 11 11 6 5 5 3 1 8 13 11 8 8 9 6 4 5 5 6 8 10 11 11 11 12 13 12
4 5 5 3 4 4 3 3 3 3 4 3 2 3 4 3 5 9 9 6 6 6 4 5 8 7 4 5 2 3 2 2 5 7 7 7 7 5 3 4 5 6 6 3 2 2 1 3 2 6 6 8 10 14 14 10 9 11 13 12 9 7 7 6 5 6 7 5 4 6 8 10 7 2 4 4 5 7 9 10 10 9 10 12 13 13 11 10
7 6 5 3 3 4 3 3 2 2 3 2 3 5 6 7 9 9 7 5 3 4 5 7 8 4 1 4 4 2 5 6 7 8 7 8 10 9 7 7 7 5 4 3 2 0 3 2 1 5 6 7 8 10 10 6 5 8 9 8 8 7 6 5 3 1 3 7 8 6 7 9 6 6 7 5 6 8 9 9 8 8 8 9 11 11 9 9
Wind_Direction
1 0 359 358 357 356 355 354 353 352 352 351 351 352 352 352 353 353 353 351 348 346 345 343 341 338 335 333 330 325 323 319 308 279 240 265 271 271 265 256 257 249 229 243 247 232 246 333 294 271 232 348 154 256 247 194 155 83 96 105 164 182 192 190 167 171 150 149 155 154 149 139 137 128 111 111 112 125 126 101 106 87 101 125 131 142 147 150
358 358 357 356 355 354 353 352 352 350 349 349 349 349 349 350 350 350 351 350 347 344 343 342 341 338 335 334 329 324 322 316 303 268 258 272 277 270 266 257 242 239 237 236 226 204 152 97 153 109 91 32 282 264 294 259 124 111 126 139 204 196 202 190 159 167 151 146 152 155 151 141 135 133 141 138 136 136 120 115 118 107 113 121 133 144 150 154
355 356 354 354 353 353 352 350 349 349 348 347 346 346 346 347 347 348 348 348 345 342 341 340 341 339 335 335 329 323 320 318 298 267 266 269 283 274 258 243 232 231 234 230 225 201 161 136 114 80 77 337 279 245 310 302 236 146 130 174 237 204 202 197 162 162 151 145 148 152 145 135 137 140 153 145 140 150 143 142 138 132 139 138 143 150 154 159
354 353 352 353 352 351 350 348 348 347 346 345 344 344 344 344 345 346 345 345 343 341 339 338 340 338 336 335 329 323 324 326 276 258 224 187 331 328 266 222 218 223 224 222 219 178 155 127 78 76 93 294 293 234 210 228 230 145 142 199 227 183 189 202 172 152 146 147 146 145 136 136 144 143 150 141 134 162 175 166 153 149 152 147 151 156 159 160
353 351 351 351 349 349 348 347 346 345 345 343 342 341 341 342 342 343 343 343 340 339 336 335 337 337 337 334 329 323 331 355 290 282 212 227 298 319 279 209 204 215 216 214 208 158 151 127 89 77 91 84 288 175 225 220 174 148 213 215 193 159 182 196 160 144 147 145 139 140 141 145 151 149 156 149 151 181 186 176 156 150 153 154 156 157 160 160
351 350 349 348 348 347 346 346 345 344 343 342 341 340 339 339 339 340 339 339 338 336 332 331 334 336 337 332 326 319 332 293 290 301 291 284 297 304 266 200 195 207 212 213 200 148 144 126 105 124 116 105 220 203 253 244 156 188 248 219 179 171 177 173 144 145 147 139 139 145 145 145 145 152 165 161 167 174 165 162 154 149 151 153 155 156 162 164
350 349 348 347 346 345 344 344 343 343 341 340 340 338 338 337 337 337 336 336 335 334 329 327 330 333 336 332 318 336 94 256 281 305 309 299 298 296 234 189 186 198 208 205 178 145 135 124 137 151 106 63 233 220 261 263 185 209 244 189 176 183 168 150 146 148 142 135 135 135 137 148 150 153 167 168 146 143 142 145 145 143 146 150 155 161 165 166
347 347 347 346 345 344 343 343 342 342 340 339 338 337 336 335 334 334 333 332 331 331 325 321 325 329 336 337 317 334 274 252 286 312 315 304 303 283 196 179 181 194 200 199 185 152 130 129 163 159 102 188 202 224 267 310 256 213 211 174 169 175 149 135 139 137 128 120 117 121 134 155 152 140 149 156 128 133 136 138 141 141 146 153 160 164 165 168
346 346 347 345 344 343 342 342 341 340 339 338 336 335 334 333 332 331 330 328 327 328 321 315 316 324 333 339 68 338 265 249 322 336 330 320 307 231 177 172 181 190 189 200 189 148 144 159 188 185 153 209 220 236 300 48 305 237 177 166 152 140 135 134 136 132 122 117 118 117 125 143 135 115 101 148 138 136 137 139 145 148 153 159 163 166 168 171
347 346 346 345 343 342 342 341 340 339 338 336 335 333 332 331 331 328 326 324 324 324 317 307 301 320 331 308 71 334 269 269 3 6 1 349 307 187 171 174 183 186 181 192 179 147 156 176 189 183 160 220 211 241 74 114 251 271 145 140 134 134 141 140 139 134 119 118 125 120 127 137 132 120 116 155 142 139 141 145 152 154 159 164 166 169 171 175
346 347 346 345 343 342 341 340 339 338 336 335 333 332 331 330 329 326 323 321 320 320 312 294 289 289 173 143 136 243 266 260 301 349 343 336 296 187 180 186 189 191 191 169 158 163 176 200 197 116 155 249 38 294 283 177 260 254 128 103 121 130 136 138 138 137 119 113 129 119 116 120 118 152 153 154 149 147 147 150 159 161 165 166 167 172 174 180
343 346 346 345 343 342 341 339 338 337 335 334 331 330 330 330 328 323 319 319 318 316 300 282 272 191 190 144 204 244 270 265 277 312 311 307 290 223 198 198 198 202 202 177 158 188 202 237 328 40 213 84 25 300 283 277 307 160 129 111 125 122 133 148 144 146 126 130 141 114 97 99 159 172 153 150 151 153 152 155 163 165 167 169 171 174 178 186
342 345 345 344 344 342 340 339 338 337 335 333 329 329 330 329 327 321 318 318 316 310 285 261 229 186 153 217 240 266 284 283 287 298 288 278 280 256 231 222 215 212 210 195 179 191 206 223 217 205 223 77 286 267 315 323 1 132 131 126 132 113 157 177 156 148 126 146 155 114 108 236 233 162 151 152 153 153 156 160 167 169 171 174 176 179 185 191
343 345 344 343 343 342 340 339 338 337 334 332 329 329 331 329 325 321 318 316 315 304 253 215 185 166 133 254 270 285 293 292 284 278 269 253 254 256 248 241 233 224 219 211 193 179 204 215 198 182 233 139 219 296 340 338 64 119 123 124 139 137 181 213 183 147 126 168 168 101 129 215 195 164 157 159 159 157 162 169 172 173 176 179 181 184 190 195
343 344 343 343 343 342 340 339 338 338 335 331 328 330 333 329 324 324 324 323 324 276 194 167 164 155 66 274 282 299 295 285 272 261 248 234 229 245 249 237 230 224 223 224 216 209 214 214 182 148 266 222 154 18 355 351 50 125 130 145 183 157 170 216 211 160 141 181 201 89 120 196 172 172 167 164 165 163 166 174 177 177 182 184 186 189 193 198
341 343 343 342 342 341 339 339 339 339 335 331 329 334 335 328 328 336 344 6 33 128 134 126 170 167 9 277 292 317 287 258 265 263 234 224 219 230 239 218 206 207 212 226 227 233 233 212 189 163 210 264 135 96 33 12 23 174 146 173 194 159 163 190 220 199 154 165 207 119 134 167 176 177 174 169 170 170 171 177 181 181 186 187 187 191 193 198
339 342 342 342 342 340 338 338 339 339 335 332 333 336 334 330 344 3 52 72 78 141 128 78 58 212 261 266 293 313 297 291 307 310 270 236 225 227 222 140 168 183 194 221 220 227 222 196 210 166 59 236 133 115 73 356 227 226 173 178 192 167 163 167 197 232 174 163 184 162 153 173 176 172 175 176 174 173 177 181 184 184 188 191 190 189 191 196
338 339 341 342 341 339 338 337 338 340 335 334 338 336 333 349 12 45 95 76 68 149 126 33 79 11 273 268 295 291 304 317 315 311 297 264 227 219 203 159 148 138 152 216 203 191 190 209 162 146 336 106 118 117 146 219 191 189 195 179 189 176 169 173 177 190 188 184 177 153 161 172 164 169 177 180 177 178 182 183 184 185 187 191 192 190 190 194
336 337 340 342 341 339 337 337 339 339 336 337 343 338 340 10 7 87 125 67 48 172 268 257 169 260 280 283 288 288 301 308 306 301 289 260 220 211 201 174 128 125 137 170 206 194 172 122 113 156 214 206 180 161 183 213 182 169 194 181 174 178 182 185 178 173 178 186 179 162 165 165 164 175 181 182 182 183 185 184 184 186 187 188 192 193 191 192
335 337 340 342 341 338 336 337 338 338 339 343 347 348 11 11 358 324 300 288 217 225 246 240 217 246 270 279 279 289 308 306 291 287 283 262 194 182 197 168 115 130 148 152 187 197 152 171 207 192 197 201 200 192 192 202 174 158 177 204 186 178 186 194 185 178 174 173 193 180 164 167 172 179 184 181 183 187 185 187 190 189 189 188 190 194 194 195
335 337 341 341 340 337 335 336 337 337 340 346 352 2 17 353 12 325 318 287 250 215 234 243 228 238 252 261 265 280 321 308 277 273 280 274 181 148 207 188 150 182 186 159 167 186 148 180 220 213 197 198 207 200 181 168 170 182 176 173 200 191 190 195 186 178 174 171 191 178 161 175 180 180 184 179 182 193 189 187 193 193 192 191 191 195 197 194
335 338 341 340 339 336 333 335 335 334 335 347 355 15 255 332 345 323 316 291 275 214 226 249 236 242 247 253 260 251 195 273 287 283 275 264 181 173 204 171 168 203 197 149 137 194 190 207 225 216 188 199 225 199 169 188 191 193 179 142 188 225 186 185 190 175 173 179 182 172 171 188 188 181 184 185 188 196 193 190 192 191 192 194 195 195 194 187
334 338 341 340 338 334 332 334 333 329 338 343 334 300 332 343 340 337 326 278 288 234 214 240 233 236 239 248 250 212 181 223 254 275 256 173 175 189 168 163 180 196 187 170 173 181 198 238 228 199 159 190 233 193 158 189 196 173 174 150 184 234 180 185 199 175 172 176 158 156 156 191 193 190 197 198 197 199 198 198 196 192 192 195 197 194 189 185
334 339 341 338 336 333 331 333 332 326 337 332 311 244 14 344 343 349 346 255 287 259 208 222 226 223 230 240 210 172 193 203 195 256 236 164 164 170 162 170 169 195 211 183 177 183 221 251 217 155 157 187 217 200 155 171 218 214 190 174 179 214 218 211 163 149 110 20 115 119 73 303 201 198 213 212 210 211 204 202 203 203 202 199 197 195 191 189
335 339 338 337 336 331 330 333 334 331 330 327 287 268 340 334 341 349 349 283 285 282 235 228 233 229 229 217 171 162 192 212 196 227 207 166 169 156 175 181 153 203 218 175 168 193 235 248 193 148 174 187 205 212 175 171 199 267 221 193 190 201 220 204 136 135 113 338 178 136 128 272 239 207 212 207 211 217 209 204 207 208 208 204 198 199 199 194
335 338 337 336 335 333 335 338 325 327 326 318 268 320 323 329 341 346 78 45 292 283 312 247 224 229 231 190 162 144 136 245 225 217 209 185 179 160 175 209 160 203 199 165 172 196 225 224 195 193 194 182 204 220 196 168 152 260 238 197 200 206 202 174 149 153 160 202 202 171 170 243 254 225 216 205 212 219 219 214 212 209 206 204 200 199 200 196
335 336 335 334 334 337 340 312 314 322 316 285 315 322 324 332 342 351 111 17 303 264 224 264 126 193 241 184 154 131 160 245 230 216 211 190 182 160 179 202 171 196 175 150 213 220 195 200 200 206 198 184 203 222 196 153 135 237 230 175 191 211 196 176 167 177 182 138 164 183 156 106 213 227 206 195 213 224 229 226 217 211 206 205 203 200 197 195
334 335 333 331 331 333 322 292 306 307 279 307 317 321 329 334 342 77 84 353 275 274 214 236 251 222 265 175 157 156 201 208 183 228 204 184 183 158 184 198 171 193 189 166 219 254 192 197 203 198 199 202 207 211 183 149 153 240 222 165 182 209 203 187 179 190 181 120 160 206 160 116 243 250 173 180 210 224 229 228 220 212 206 204 204 202 199 197
334 332 330 329 326 325 320 282 279 284 299 310 319 326 331 334 347 95 76 301 269 309 248 248 286 255 351 132 177 197 206 171 191 236 179 176 188 166 188 198 171 196 214 180 207 251 220 198 192 185 200 212 214 211 169 153 190 238 206 151 150 204 212 197 188 184 157 155 191 201 185 184 263 257 161 176 211 223 228 226 221 214 206 205 204 203 201 198
333 329 327 329 322 319 325 281 276 295 307 313 327 329 329 333 67 100 152 237 295 291 251 341 336 302 67 125 213 232 203 204 223 182 130 167 195 187 186 177 152 185 223 204 202 225 250 239 185 179 194 196 209 212 169 173 205 223 139 111 80 360 270 180 164 120 141 207 215 197 190 190 231 243 189 187 207 215 219 222 220 214 208 207 204 203 200 197
331 327 325 323 312 307 311 285 289 313 317 322 330 329 326 351 87 135 213 235 299 283 303 359 339 356 26 151 235 242 210 230 211 154 157 158 181 198 178 146 141 159 217 238 243 255 263 259 240 216 200 178 194 219 184 185 203 201 171 139 120 333 4 29 10 60 169 230 237 205 195 191 212 239 211 207 212 212 212 214 210 208 208 206 203 203 200 197
329 325 321 316 306 286 258 268 286 288 288 312 326 335 63 74 333 192 228 332 315 267 16 332 319 359 354 315 261 225 220 233 196 169 174 160 174 198 192 185 175 175 225 221 240 280 249 242 254 272 243 184 175 221 216 189 175 165 167 139 153 263 352 18 282 223 203 239 242 199 189 197 226 234 212 210 216 216 216 217 210 205 205 201 200 203 200 195
328 325 318 314 307 279 265 278 277 265 279 299 317 17 88 154 230 210 219 280 247 227 75 313 326 346 343 344 320 249 243 231 206 185 186 170 171 198 209 210 177 169 197 201 204 231 247 267 257 244 264 197 175 196 221 206 162 161 171 159 171 181 149 210 240 283 250 255 255 187 173 203 267 257 214 207 214 215 214 217 213 206 202 197 199 200 195 191
327 325 319 314 306 289 282 280 266 252 261 284 360 71 109 204 231 210 212 234 259 317 359 342 337 337 334 331 271 242 241 245 221 181 188 171 164 202 220 230 194 166 149 165 193 191 198 244 236 217 228 194 188 198 190 179 172 180 169 153 172 174 169 202 209 204 224 242 265 135 160 191 212 228 213 204 214 216 214 220 218 207 199 194 199 199 191 192
328 326 321 315 305 302 298 270 253 232 188 152 89 121 192 217 231 201 216 234 266 315 319 328 327 316 313 297 256 244 225 244 224 160 185 181 178 198 199 209 210 176 150 175 210 194 197 233 244 231 224 196 198 204 175 165 212 214 139 131 190 189 178 198 194 189 190 209 241 154 195 217 210 251 265 216 219 215 211 226 223 207 192 188 199 199 191 195
331 330 326 314 308 317 314 259 225 184 162 144 117 186 213 218 206 190 212 215 187 276 312 336 312 278 300 297 308 352 316 268 220 171 216 215 199 200 195 204 201 184 174 181 212 185 179 245 265 238 239 224 204 199 180 175 198 197 139 180 215 177 157 168 229 204 113 171 234 192 216 278 283 281 317 298 220 196 182 205 213 205 189 184 196 197 193 197
332 332 323 309 317 319 298 242 186 167 157 139 170 207 223 218 210 206 245 301 262 303 39 27 302 285 303 299 310 349 354 335 300 223 234 237 228 206 202 216 196 189 187 174 214 217 159 253 280 213 229 244 212 204 219 192 171 179 205 204 188 119 120 129 172 22 79 188 248 190 195 228 199 236 303 332 191 184 180 191 202 200 186 189 199 195 194 197
325 320 302 309 327 319 271 196 165 159 143 147 200 230 208 216 233 211 271 331 335 354 31 47 264 282 270 284 303 324 354 345 312 305 265 230 247 212 196 209 201 195 192 180 208 244 162 241 292 218 213 242 200 193 240 236 201 206 217 179 148 160 224 151 168 181 159 205 255 260 221 206 189 218 243 202 191 193 191 187 189 190 189 198 201 193 193 196
322 312 312 331 338 322 188 162 156 147 112 165 208 235 204 229 258 239 264 308 322 311 297 235 218 251 271 273 290 306 330 293 272 301 269 221 257 227 194 195 204 197 193 185 193 216 156 198 272 253 219 235 177 171 220 243 238 216 131 152 153 169 182 182 170 167 177 198 219 263 278 239 222 213 197 204 204 187 179 180 188 194 196 200 196 187 191 194
334 312 312 346 358 111 144 147 154 140 152 184 201 221 226 251 254 254 253 233 229 256 239 229 224 244 273 270 267 277 279 250 241 254 250 228 263 261 213 197 200 193 190 190 189 189 167 185 236 270 271 248 227 204 205 212 209 191 197 207 193 139 149 178 176 143 149 164 178 211 260 260 248 207 186 208 210 183 178 183 193 198 197 197 191 185 191 194
336 322 266 59 56 113 132 124 249 159 179 235 214 220 249 252 249 282 273 230 217 231 230 243 246 251 269 268 261 251 261 273 243 226 257 241 231 256 232 208 202 188 179 189 197 194 185 185 213 250 264 237 241 236 204 192 192 187 195 204 188 163 131 150 229 251 125 155 171 173 225 260 256 202 192 210 203 186 188 189 193 196 190 190 190 189 192 192
322 322 235 159 17 235 153 337 274 169 201 242 220 229 243 247 246 263 270 254 233 224 226 236 242 247 256 257 252 238 247 276 268 240 248 241 229 233 233 219 212 194 164 181 204 195 160 149 196 233 245 235 243 248 221 201 202 202 211 205 179 155 134 150 204 235 207 199 134 125 209 263 262 217 210 224 208 189 194 191 187 186 184 186 190 191 192 195
211 302 277 270 277 228 177 328 283 250 240 244 261 267 246 256 263 248 254 259 236 221 221 223 230 232 232 238 247 246 243 253 257 254 256 260 253 241 231 217 213 203 174 182 202 191 157 140 181 228 259 268 267 273 266 215 181 208 245 216 172 174 168 160 175 179 185 202 134 123 237 263 275 261 228 224 199 175 183 185 179 180 184 188 190 191 194 199
271 283 283 301 313 194 182 243 262 251 266 273 281 277 260 250 252 256 252 235 217 220 235 231 222 225 232 240 261 270 272 262 257 267 273 272 264 251 238 221 211 202 188 188 183 176 196 179 161 196 240 263 272 277 288 291 170 191 236 215 192 187 165 141 123 137 196 214 162 156 230 251 275 296 265 156 162 169 182 182 176 177 181 189 193 193 196 200
305 255 249 304 327 287 189 202 359 287 306 326 300 279 273 252 234 240 245 243 234 230 243 250 234 235 238 231 276 282 285 286 287 312 310 294 284 285 274 238 215 204 209 207 179 167 187 186 163 185 211 222 227 229 235 242 205 203 211 206 205 186 167 161 133 147 215 231 154 156 211 252 281 301 36 156 172 178 189 186 181 184 186 191 193 193 195 197
327 290 274 309 335 21 16 26 42 18 343 348 317 267 251 258 255 252 253 251 240 228 230 242 242 249 244 216 247 274 276 276 265 304 311 299 286 299 319 300 233 211 228 215 168 155 157 178 182 190 205 211 209 220 219 163 153 207 209 205 212 197 179 160 126 165 193 169 170 209 197 201 258 239 200 216 202 192 194 187 186 192 194 196 195 193 194 194
316 283 327 338 324 348 10 32 42 24 316 306 302 271 265 276 291 291 275 264 259 250 241 231 225 232 230 213 212 235 244 271 294 306 299 288 280 296 315 331 311 237 233 159 159 145 101 200 200 193 207 215 210 218 220 169 170 209 207 204 210 203 182 165 167 187 162 137 217 252 195 173 211 215 202 209 208 205 204 194 191 194 193 194 193 191 190 192
281 273 2 5 303 312 351 336 344 332 294 277 270 262 266 282 304 308 294 308 302 281 247 232 241 250 236 207 181 173 186 223 309 312 289 277 295 322 325 336 321 296 322 140 166 157 144 217 215 195 213 222 217 225 228 213 211 221 212 211 208 194 182 187 193 180 155 164 214 226 188 186 200 202 204 205 200 200 202 196 189 182 177 179 180 182 189 197
309 308 353 7 313 282 285 294 305 306 297 289 266 252 263 290 304 311 309 317 311 295 249 237 283 303 292 228 181 169 178 179 212 270 269 289 315 333 335 315 285 311 353 6 209 162 166 216 207 190 218 228 220 228 233 228 234 238 230 224 215 198 191 195 196 176 169 190 203 178 181 199 202 198 204 205 196 192 183 163 158 163 170 176 176 183 196 202
351 308 334 353 311 282 272 280 292 301 302 288 254 268 304 294 306 328 320 289 281 293 313 307 282 301 313 291 200 161 174 165 157 200 250 300 309 298 308 282 278 323 342 324 317 39 178 230 204 173 211 237 223 225 230 227 230 237 240 237 220 201 198 195 179 161 171 218 212 161 179 209 226 209 197 178 126 109 124 151 169 178 178 176 181 192 200 201
328 292 305 318 295 282 273 286 305 300 292 279 266 323 331 313 327 330 309 264 241 267 301 312 289 288 314 308 261 136 138 171 178 210 239 262 271 266 258 249 259 310 320 300 326 29 163 246 219 147 187 234 225 222 226 221 223 242 255 246 210 175 187 190 162 162 172 165 118 128 178 217 233 154 107 106 120 142 170 183 186 188 183 178 186 193 195 196
336 310 309 302 278 291 306 310 311 275 263 294 344 337 316 303 315 320 308 296 288 302 326 312 288 274 308 295 286 323 324 291 249 240 238 240 255 259 255 256 254 258 274 289 306 240 141 162 208 157 183 236 232 211 203 185 201 245 257 231 193 173 158 131 86 58 144 141 141 161 208 217 192 142 137 158 169 174 191 197 187 185 183 183 189 188 186 192